EZY67E EGPH-EGSS

Flight info

Callsign EZY67E
Flight time 1h 2m
Altitude 33000
Route GOSAM P600 FENIK L612 NAVSO DCT AKOMU DCT VAMEB UL612 LISTO
Aircraft A20N/M-SDE2E3FGHIRWXY/LB1

Departure

Time 2026-04-23 20:40
Airport Edinburgh Airport (EGPH)

Arrival

Time 2026-04-23 21:43
Airport London Stansted Airport (EGSS)
Time Latitude Longitude Altitude Speed Heading
2026-04-23 20:02 55.94882 -3.36549 116 ft 0 kts 148°
2026-04-23 20:27 55.94890 -3.36558 114 ft 2 kts 148°
2026-04-23 20:27 55.94904 -3.36572 115 ft 2 kts 150°
2026-04-23 20:27 55.94918 -3.36586 115 ft 2 kts 153°
2026-04-23 20:27 55.94933 -3.36598 117 ft 2 kts 163°
2026-04-23 20:28 55.94948 -3.36595 114 ft 1 kts 237°
2026-04-23 20:28 55.94949 -3.36590 115 ft 0 kts 238°
2026-04-23 20:32 55.94948 -3.36595 114 ft 1 kts 238°
2026-04-23 20:32 55.94943 -3.36607 114 ft 1 kts 238°
2026-04-23 20:32 55.94932 -3.36639 118 ft 5 kts 238°
2026-04-23 20:32 55.94909 -3.36706 119 ft 8 kts 238°
2026-04-23 20:33 55.94908 -3.36810 118 ft 10 kts 311°
2026-04-23 20:33 55.94913 -3.36934 117 ft 12 kts 239°
2026-04-23 20:33 55.94865 -3.37074 117 ft 15 kts 238°
2026-04-23 20:33 55.94807 -3.37247 116 ft 18 kts 239°
2026-04-23 20:34 55.94738 -3.37448 116 ft 20 kts 239°
2026-04-23 20:34 55.94662 -3.37675 116 ft 23 kts 239°
2026-04-23 20:34 55.94576 -3.37927 117 ft 25 kts 239°
2026-04-23 20:34 55.94483 -3.38203 118 ft 27 kts 238°
2026-04-23 20:35 55.94383 -3.38496 117 ft 28 kts 239°
2026-04-23 20:35 55.94295 -3.38753 115 ft 11 kts 239°
2026-04-23 20:35 55.94290 -3.38864 118 ft 9 kts 308°
2026-04-23 20:35 55.94317 -3.38899 115 ft 0 kts 327°
2026-04-23 20:39 55.94319 -3.38901 115 ft 2 kts 327°
2026-04-23 20:39 55.94345 -3.38931 117 ft 7 kts 328°
2026-04-23 20:39 55.94408 -3.38963 116 ft 10 kts 21°
2026-04-23 20:39 55.94451 -3.38869 115 ft 10 kts 59°
2026-04-23 20:40 55.94554 -3.38565 114 ft 63 kts 59°
2026-04-23 20:40 55.94917 -3.37493 116 ft 136 kts 59°
2026-04-23 20:40 55.95468 -3.35869 457 ft 158 kts 59°
2026-04-23 20:40 55.96022 -3.34256 1317 ft 147 kts 56°
2026-04-23 20:41 55.96760 -3.32807 1857 ft 177 kts 44°
2026-04-23 20:41 55.97770 -3.31230 2346 ft 205 kts 41°
2026-04-23 20:41 55.98947 -3.29461 2811 ft 238 kts 38°
2026-04-23 20:41 56.00459 -3.28066 3621 ft 253 kts 14°
2026-04-23 20:42 56.02226 -3.28135 4589 ft 261 kts 341°
2026-04-23 20:42 56.03714 -3.29965 5583 ft 265 kts 306°
2026-04-23 20:42 56.04380 -3.33008 6622 ft 267 kts 272°
2026-04-23 20:42 56.04039 -3.36221 7631 ft 268 kts 247°
2026-04-23 20:43 56.03233 -3.39243 8664 ft 271 kts 242°
2026-04-23 20:43 56.02347 -3.42239 9708 ft 274 kts 242°
2026-04-23 20:43 56.01599 -3.45396 10688 ft 278 kts 251°
2026-04-23 20:43 56.01037 -3.48832 11209 ft 300 kts 254°
2026-04-23 20:44 56.00495 -3.52593 11578 ft 324 kts 255°
2026-04-23 20:44 55.99929 -3.56608 12076 ft 342 kts 255°
2026-04-23 20:44 55.99340 -3.60786 12851 ft 350 kts 255°
2026-04-23 20:44 55.98735 -3.65042 13695 ft 356 kts 255°
2026-04-23 20:45 55.98120 -3.69348 14248 ft 360 kts 255°
2026-04-23 20:45 55.97494 -3.73705 14423 ft 363 kts 255°
2026-04-23 20:45 55.96864 -3.78084 14482 ft 365 kts 255°
2026-04-23 20:45 55.96225 -3.82505 15023 ft 370 kts 255°
2026-04-23 20:46 55.95587 -3.86901 15863 ft 373 kts 255°
2026-04-23 20:46 55.94864 -3.91364 16669 ft 377 kts 250°
2026-04-23 20:46 55.93732 -3.95596 17448 ft 381 kts 238°
2026-04-23 20:46 55.92076 -3.99314 18225 ft 384 kts 225°
2026-04-23 20:47 55.90110 -4.02585 18950 ft 389 kts 221°
2026-04-23 20:47 55.88061 -4.05777 19596 ft 393 kts 220°
2026-04-23 20:47 55.85983 -4.08993 20255 ft 397 kts 220°
2026-04-23 20:47 55.83889 -4.12242 20910 ft 401 kts 220°
2026-04-23 20:48 55.81777 -4.15528 21541 ft 406 kts 220°
2026-04-23 20:48 55.79634 -4.18843 22196 ft 410 kts 219°
2026-04-23 20:48 55.77386 -4.22000 22850 ft 414 kts 216°
2026-04-23 20:48 55.74930 -4.24671 23431 ft 417 kts 203°
2026-04-23 20:49 55.72153 -4.26117 24035 ft 419 kts 187°
2026-04-23 20:49 55.69237 -4.26021 24495 ft 422 kts 169°
2026-04-23 20:49 55.66465 -4.24447 24966 ft 425 kts 157°
2026-04-23 20:49 55.63769 -4.22184 25383 ft 430 kts 152°
2026-04-23 20:50 55.61141 -4.19601 25846 ft 434 kts 150°
2026-04-23 20:50 55.58532 -4.16888 26311 ft 437 kts 149°
2026-04-23 20:50 55.55905 -4.14142 26774 ft 441 kts 149°
2026-04-23 20:50 55.53241 -4.11400 27199 ft 444 kts 150°
2026-04-23 20:51 55.50547 -4.08687 27611 ft 448 kts 150°
2026-04-23 20:51 55.47817 -4.05987 28031 ft 452 kts 151°
2026-04-23 20:51 55.45061 -4.03296 28465 ft 454 kts 151°
2026-04-23 20:51 55.42280 -4.00599 28851 ft 458 kts 151°
2026-04-23 20:52 55.39462 -3.97878 29168 ft 463 kts 151°
2026-04-23 20:52 55.36625 -3.95144 29606 ft 466 kts 151°
2026-04-23 20:52 55.33775 -3.92400 30027 ft 468 kts 151°
2026-04-23 20:52 55.30919 -3.89652 30572 ft 467 kts 151°
2026-04-23 20:53 55.28115 -3.86957 31083 ft 465 kts 151°
2026-04-23 20:53 55.25275 -3.84232 31535 ft 464 kts 151°
2026-04-23 20:53 55.22437 -3.81522 31900 ft 465 kts 152°
2026-04-23 20:53 55.19567 -3.78914 32295 ft 466 kts 153°
2026-04-23 20:54 55.16661 -3.76385 32660 ft 467 kts 153°
2026-04-23 20:54 55.13741 -3.73897 33056 ft 466 kts 153°
2026-04-23 20:54 55.10813 -3.71420 33375 ft 468 kts 153°
2026-04-23 20:54 55.07880 -3.68938 33408 ft 468 kts 153°
2026-04-23 20:55 55.02032 -3.63972 33409 ft 467 kts 153°
2026-04-23 20:55 54.96187 -3.58997 33410 ft 467 kts 153°
2026-04-23 20:56 54.90383 -3.54064 33411 ft 467 kts 153°
2026-04-23 20:56 54.84539 -3.49113 33412 ft 467 kts 153°
2026-04-23 20:57 54.78687 -3.44173 33423 ft 468 kts 153°
2026-04-23 20:57 54.72837 -3.39251 33423 ft 468 kts 153°
2026-04-23 20:58 54.66979 -3.34339 33425 ft 468 kts 153°
2026-04-23 20:58 54.61103 -3.29427 33424 ft 469 kts 153°
2026-04-23 20:59 54.55222 -3.24526 33423 ft 469 kts 153°
2026-04-23 20:59 54.49316 -3.19744 33429 ft 470 kts 154°
2026-04-23 21:00 54.43311 -3.15191 33432 ft 473 kts 155°
2026-04-23 21:00 54.37319 -3.10656 33427 ft 473 kts 154°
2026-04-23 21:01 54.31295 -3.06067 33426 ft 474 kts 154°
2026-04-23 21:01 54.25268 -3.01494 33423 ft 474 kts 154°
2026-04-23 21:02 54.19239 -2.96936 33426 ft 474 kts 154°
2026-04-23 21:02 54.13198 -2.92385 33434 ft 474 kts 154°
2026-04-23 21:03 54.07155 -2.87847 33424 ft 474 kts 154°
2026-04-23 21:03 54.01113 -2.83325 33423 ft 474 kts 154°
2026-04-23 21:04 53.95063 -2.78810 33422 ft 474 kts 154°
2026-04-23 21:04 53.89048 -2.74336 33424 ft 475 kts 154°
2026-04-23 21:05 53.82985 -2.69841 33424 ft 475 kts 154°
2026-04-23 21:05 53.76926 -2.65362 33426 ft 475 kts 155°
2026-04-23 21:06 53.70873 -2.60903 33431 ft 475 kts 155°
2026-04-23 21:06 53.64862 -2.56488 33414 ft 473 kts 155°
2026-04-23 21:07 53.58837 -2.52077 33426 ft 472 kts 155°
2026-04-23 21:07 53.52807 -2.47676 33426 ft 472 kts 155°
2026-04-23 21:08 53.46785 -2.43294 33430 ft 472 kts 155°
2026-04-23 21:08 53.40750 -2.38916 33436 ft 472 kts 155°
2026-04-23 21:09 53.34719 -2.34555 33435 ft 472 kts 155°
2026-04-23 21:09 53.28687 -2.30206 33428 ft 472 kts 155°
2026-04-23 21:10 53.22655 -2.25871 33423 ft 472 kts 155°
2026-04-23 21:10 53.16617 -2.21534 33434 ft 472 kts 154°
2026-04-23 21:11 53.11018 -2.15924 33426 ft 469 kts 142°
2026-04-23 21:11 53.05754 -2.09495 33426 ft 469 kts 141°
2026-04-23 21:12 53.00520 -2.03106 33427 ft 469 kts 142°
2026-04-23 21:12 52.95307 -1.96782 33430 ft 458 kts 143°
2026-04-23 21:13 52.91044 -1.91631 33430 ft 454 kts 143°
2026-04-23 21:13 52.85931 -1.85472 33435 ft 454 kts 143°
2026-04-23 21:14 52.80816 -1.79327 33439 ft 454 kts 143°
2026-04-23 21:14 52.75696 -1.73212 33440 ft 454 kts 145°
2026-04-23 21:15 52.70185 -1.68049 33343 ft 456 kts 152°
2026-04-23 21:15 52.64581 -1.63252 33043 ft 458 kts 151°
2026-04-23 21:16 52.61754 -1.60835 32290 ft 458 kts 151°
2026-04-23 21:16 52.58920 -1.58411 31475 ft 460 kts 151°
2026-04-23 21:16 52.56072 -1.55976 30709 ft 461 kts 152°
2026-04-23 21:16 52.53220 -1.53541 29829 ft 462 kts 152°
2026-04-23 21:17 52.50365 -1.51106 28916 ft 463 kts 152°
2026-04-23 21:17 52.47506 -1.48669 28202 ft 461 kts 153°
2026-04-23 21:17 52.44698 -1.46278 27761 ft 447 kts 153°
2026-04-23 21:17 52.41969 -1.43959 26792 ft 437 kts 153°
2026-04-23 21:18 52.39259 -1.41660 25350 ft 440 kts 153°
2026-04-23 21:18 52.36544 -1.39361 24334 ft 435 kts 153°
2026-04-23 21:18 52.33901 -1.37123 23722 ft 424 kts 153°
2026-04-23 21:18 52.31295 -1.34922 22829 ft 419 kts 153°
2026-04-23 21:19 52.28727 -1.32665 21518 ft 417 kts 150°
2026-04-23 21:19 52.26194 -1.30301 19975 ft 423 kts 149°
2026-04-23 21:19 52.23666 -1.27910 19163 ft 412 kts 149°
2026-04-23 21:19 52.21228 -1.25606 18789 ft 404 kts 149°
2026-04-23 21:20 52.18788 -1.23303 18291 ft 405 kts 149°
2026-04-23 21:20 52.16357 -1.21014 17803 ft 402 kts 148°
2026-04-23 21:20 52.13940 -1.18743 17335 ft 399 kts 148°
2026-04-23 21:20 52.11569 -1.16519 16877 ft 397 kts 148°
2026-04-23 21:21 52.09182 -1.14283 16408 ft 394 kts 148°
2026-04-23 21:21 52.06812 -1.12066 15933 ft 392 kts 148°
2026-04-23 21:21 52.04457 -1.09850 15550 ft 389 kts 147°
2026-04-23 21:21 52.02307 -1.07234 15226 ft 384 kts 134°
2026-04-23 21:22 52.00710 -1.03821 14953 ft 378 kts 117°
2026-04-23 21:22 51.99824 -0.99839 14742 ft 375 kts 101°
2026-04-23 21:22 51.99599 -0.95640 14520 ft 374 kts 91°
2026-04-23 21:22 51.99594 -0.91418 14293 ft 373 kts 89°
2026-04-23 21:23 51.99617 -0.87214 14056 ft 372 kts 89°
2026-04-23 21:23 51.99635 -0.83013 13823 ft 371 kts 89°
2026-04-23 21:23 51.99644 -0.78835 13599 ft 370 kts 90°
2026-04-23 21:23 51.99647 -0.74663 13392 ft 369 kts 90°
2026-04-23 21:24 51.99645 -0.70500 13157 ft 368 kts 90°
2026-04-23 21:24 51.99640 -0.66351 12934 ft 368 kts 90°
2026-04-23 21:24 51.99633 -0.62206 12714 ft 366 kts 90°
2026-04-23 21:24 51.99625 -0.58075 12487 ft 366 kts 90°
2026-04-23 21:25 51.99614 -0.53969 12303 ft 357 kts 90°
2026-04-23 21:25 51.99602 -0.50097 12116 ft 340 kts 90°
2026-04-23 21:25 51.99590 -0.46339 11924 ft 325 kts 90°
2026-04-23 21:25 51.99577 -0.42742 11723 ft 312 kts 90°
2026-04-23 21:26 51.99557 -0.39290 11531 ft 300 kts 90°
2026-04-23 21:26 51.99524 -0.35976 11351 ft 288 kts 90°
2026-04-23 21:26 51.99488 -0.32773 11151 ft 280 kts 90°
2026-04-23 21:26 51.99452 -0.29630 10989 ft 278 kts 90°
2026-04-23 21:27 51.99414 -0.26494 10824 ft 279 kts 90°
2026-04-23 21:27 51.99376 -0.23346 10655 ft 278 kts 90°
2026-04-23 21:27 51.99338 -0.20210 10490 ft 278 kts 90°
2026-04-23 21:27 51.99298 -0.17086 10317 ft 277 kts 90°
2026-04-23 21:28 51.99258 -0.13955 10138 ft 277 kts 90°
2026-04-23 21:28 51.99217 -0.10835 9972 ft 276 kts 90°
2026-04-23 21:28 51.99175 -0.07757 9821 ft 267 kts 91°
2026-04-23 21:28 51.99135 -0.04803 9669 ft 256 kts 91°
2026-04-23 21:29 51.99095 -0.01966 9515 ft 246 kts 91°
2026-04-23 21:29 51.99086 0.00765 9380 ft 239 kts 85°
2026-04-23 21:29 51.99481 0.03332 9238 ft 239 kts 63°
2026-04-23 21:29 52.00552 0.05378 9097 ft 241 kts 36°
2026-04-23 21:30 52.02112 0.06366 8945 ft 245 kts 11°
2026-04-23 21:30 52.03818 0.06592 8787 ft 247 kts
2026-04-23 21:30 52.05539 0.06662 8631 ft 247 kts
2026-04-23 21:30 52.07261 0.06721 8485 ft 246 kts
2026-04-23 21:31 52.08972 0.06776 8338 ft 246 kts
2026-04-23 21:31 52.10660 0.06305 8189 ft 249 kts 340°
2026-04-23 21:31 52.12061 0.04658 8045 ft 253 kts 310°
2026-04-23 21:31 52.12777 0.02055 7885 ft 256 kts 278°
2026-04-23 21:32 52.12590 -0.00788 7733 ft 256 kts 247°
2026-04-23 21:32 52.11559 -0.03088 7576 ft 252 kts 216°
2026-04-23 21:32 52.09998 -0.04249 7447 ft 246 kts 188°
2026-04-23 21:32 52.08299 -0.04589 7214 ft 247 kts 181°
2026-04-23 21:33 52.06586 -0.04762 6891 ft 246 kts 180°
2026-04-23 21:33 52.04884 -0.04921 6611 ft 243 kts 181°
2026-04-23 21:33 52.03198 -0.05091 6355 ft 242 kts 180°
2026-04-23 21:33 52.01536 -0.04967 6075 ft 237 kts 163°
2026-04-23 21:34 52.00000 -0.04078 5855 ft 233 kts 152°
2026-04-23 21:34 51.98571 -0.02856 5484 ft 233 kts 147°
2026-04-23 21:34 51.97215 -0.01475 5132 ft 233 kts 144°
2026-04-23 21:34 51.95865 -0.00013 4782 ft 234 kts 143°
2026-04-23 21:35 51.94519 0.01446 4455 ft 232 kts 143°
2026-04-23 21:35 51.93090 0.02663 4144 ft 234 kts 159°
2026-04-23 21:35 51.91472 0.02977 3862 ft 236 kts 177°
2026-04-23 21:35 51.89840 0.02738 3592 ft 235 kts 185°
2026-04-23 21:36 51.86651 0.01559 3079 ft 235 kts 191°
2026-04-23 21:36 51.85084 0.00858 2943 ft 233 kts 192°
2026-04-23 21:36 51.83524 0.00161 2869 ft 232 kts 191°
2026-04-23 21:37 51.81968 -0.00512 2804 ft 230 kts 190°
2026-04-23 21:37 51.80451 -0.01150 2700 ft 219 kts 189°
2026-04-23 21:37 51.79011 -0.01378 2627 ft 204 kts 168°
2026-04-23 21:37 51.77703 -0.00667 2601 ft 197 kts 141°
2026-04-23 21:38 51.76849 0.00881 2542 ft 175 kts 112°
2026-04-23 21:38 51.76635 0.02674 2471 ft 154 kts 85°
2026-04-23 21:38 51.76817 0.04314 2479 ft 146 kts 77°
2026-04-23 21:38 51.77101 0.05894 2486 ft 147 kts 70°
2026-04-23 21:39 51.77664 0.07281 2486 ft 150 kts 51°
2026-04-23 21:39 51.78412 0.08457 2488 ft 151 kts 47°
2026-04-23 21:39 51.79191 0.09601 2493 ft 151 kts 47°
2026-04-23 21:39 51.79979 0.10730 2487 ft 151 kts 47°
2026-04-23 21:40 51.80748 0.11882 2309 ft 150 kts 48°
2026-04-23 21:40 51.81517 0.13034 2088 ft 152 kts 47°
2026-04-23 21:40 51.82293 0.14189 1913 ft 149 kts 47°
2026-04-23 21:40 51.83048 0.15316 1679 ft 148 kts 46°
2026-04-23 21:41 51.83792 0.16429 1462 ft 140 kts 46°
2026-04-23 21:41 51.84467 0.17438 1267 ft 125 kts 46°
2026-04-23 21:41 51.85075 0.18351 1095 ft 116 kts 45°
2026-04-23 21:41 51.85665 0.19238 926 ft 116 kts 44°
2026-04-23 21:42 51.86255 0.20128 801 ft 118 kts 43°
2026-04-23 21:42 51.86866 0.21029 634 ft 117 kts 43°
2026-04-23 21:42 51.87456 0.21916 456 ft 117 kts 43°
2026-04-23 21:42 51.88046 0.22795 338 ft 113 kts 42°
2026-04-23 21:43 51.88556 0.23562 349 ft 89 kts 43°
2026-04-23 21:43 51.88937 0.24134 355 ft 61 kts 43°
2026-04-23 21:43 51.89198 0.24525 352 ft 44 kts 43°
2026-04-23 21:43 51.89398 0.24827 355 ft 26 kts 43°
2026-04-23 21:44 51.89485 0.24970 352 ft 8 kts 68°
2026-04-23 21:44 51.89472 0.25052 355 ft 9 kts 123°
2026-04-23 21:44 51.89423 0.25143 356 ft 0 kts 133°
2026-04-23 21:46 51.89412 0.25161 348 ft 6 kts 133°
2026-04-23 21:46 51.89378 0.25221 362 ft 0 kts 137°